SCP
0 0 0 0 0 0 0 0 0 -0 -0 -0 0 0 0 -0 -0 -0 -0 -0 0 0 0 0 0 0 0 0 0 0 0 0 0 0 0 0 0 0 0 0 0 0 0 0
0 0 0 0 0 0 0 0 0 0 -0 -0 0 0 0 0 -0 -0 -0 -0 0 0 0 0 0 0 0 0 0 0 0 0 0 0 0 0 0 0 0 0 0 0 0 0
0 0 0 0 0 0 0 0 0 0 -0 -0 -0 -0 0 0 -0 -0 0 0 0 0 0 0 0 0 0 0 0 0 0 0 0 0 0 0 0 0 0 0 0 0 0 0
0 0 0 -0 -0 0 0 0 0 0 -0 -0 -0 0 0 0 0 0 0 0 0 0 0 0 0 0 0 0 0 0 0 0 0 0 0 0 0 0 0 0 0 0 0 0
0 0 -0 -0 -0 0 0 0 0 0 -0 -0 -0 0 0 0 0 0 0 0 0 0 0 0 0 0 0 0 0 0 0 0 0 0 0 0 0 0 0 0 0 0 0 0
0 0 -0 -0 -0 0 0 0 0 0 0 -0 0 0 0 0 0 0 0 0 0 0 0 0 0 0 0 0 0 0 0 0 0 0 0 0 0 0 0 0 0 0 0 0
0 0 0 -0 0 0 0 0 0 0 0 0 0 0 0 0 0 0 0 0 0 0 0 0 0 0 0 0 0 0 0 0 0 0 0 0 0 0 0 0 0 0 0 0
0 0 0 0 0 0 0 0 0 0 0 0 0 0 0 0 0 0 0 0 0 0 0 0 0 0 0 0 0 0 0 0 0 0 0 0 0 0 0 0 0 0 0 0
0 0 0 0 0 0 -0 -0 -0 -0 0 0 0 0 0 0 0 0 0 0 0 0 0 0 0 0 0 0 0 0 0 0 0 0 0 0 0 0 0 0 0 0 0 0
0 0 0 0 -0 -0 -0 -0 -0 -0 0 0 0 0 0 0 0 0 0 0 0 0 0 0 0 0 0 0 0 0 0 0 0 0 0 0 0 0 0 0 0 0 0 0
0 0 0 -0 -0 -0 -0 -0 -0 -0 0 0 0 0 0 0 0 0 0 0 0 0 0 0 0 0 0 0 0 0 0 0 0 0 0 0 0 0 0 0 0 0 0 0
0 0 0 -0 -0 -0 -0 0 0 0 0 -0 0 0 0 0 0 0 0 0 0 0 0 0 0 0 0 0 0 0 0 0 0 0 0 0 0 0 0 0 0 0 0 0
0 0 0 -0 -0 -0 -0 0 0 0 0 -0 0 0 0 0 0 0 0 0 0 0 0 0 0 0 0 0 0 0 0 0 0 0 0 0 0 0 0 0 0 0 0 0
0 0 0 -0 -0 -0 -0 -0 0 0 0 0 0 0 0 0 0 0 0 0 0 0 0 -0 -0 -0 0 0 0 0 0 0 0 0 0 0 0 0 0 0 0 0 0 0
0 0 0 0 0 -0 -0 -0 0 0 0 0 0 0 0 0 0 0 0 0 0 0 -0 -0 -0 -0 0 0 0 0 0 0 0 0 0 0 0 0 0 0 0 0 0 0
0 0 0 -0 -0 -0 0 0 0 0 0 0 0 0 0 0 0 0 0 -0 -0 -0 0 0 0 -0 0 0 0 0 0 0 0 0 0 0 0 0 0 0 0 0 0 0
-0 -0 -0 -0 -0 -0 -0 0 0 0 0 0 0 0 0 0 0 -0 -0 -0 -0 0 0 0 0 0 0 0 0 0 0 -0 0 0 0 0 0 0 0 0 0 0 0 0
-0 0 0 -0 -0 -0 -0 0 0 0 0 0 0 0 0 0 0 -0 -0 -0 0 0 0 0 0 0 0 0 -0 -0 -0 0 0 0 0 0 0 0 0 0 0 0 0 0
0 0 0 0 0 -0 0 0 0 0 0 0 0 0 0 0 0 0 0 0 0 0 0 0 0 0 0 0 -0 -0 -0 0 0 0 -0 -0 -0 0 0 0 0 0 0 0
0 0 0 0 0 0 0 0 0 0 0 0 0 0 0 0 0 0 0 0 0 0 0 0 0 0 0 0 -0 -0 -0 0 0 -0 -0 -0 -0 0 0 0 0 0 0 0
0 0 0 0 0 0 0 0 0 0 0 0 0 0 0 0 0 0 0 0 0 0 0 0 0 0 0 0 0 -0 0 0 0 -0 -0 -0 0 0 0 0 0 0 0 0
0 0 0 0 0 0 0 0 0 0 0 0 0 0 0 0 0 0 0 0 0 0 0 0 0 0 0 0 0 0 0 0 0 0 0 0 0 0 0 0 0 0 0 0
0 0 0 0 0 -0 0 0 0 0 0 0 0 0 0 0 0 0 0 0 0 0 0 0 0 0 0 0 0 0 0 0 0 0 0 0 0 0 0 0 0 0 0 0
0 0 0 -0 -0 -0 -0 0 0 0 0 0 0 0 0 0 0 0 0 0 0 0 0 0 0 0 0 0 0 0 0 0 0 0 0 0 0 0 0 0 0 0 0 0
0 0 -0 -0 -0 -0 0 0 0 0 0 0 0 0 0 0 0 0 0 0 0 0 0 0 0 0 0 0 0 0 0 0 0 0 0 0 0 0 0 0 0 0 0 0
0 -0 -0 -0 -0 0 0 0 0 0 0 0 0 0 0 0 0 0 0 0 0 0 0 0 0 0 0 0 0 0 0 0 0 0 0 0 0 0 0 0 0 0 0 0
0 -0 -0 -0 0 0 0 0 0 0 0 0 0 0 0 0 0 0 0 0 0 0 0 0 0 0 0 0 0 0 0 0 0 0 0 0 0 0 0 0 0 0 0 0
Wind_Speed
8 8 7 9 11 11 12 11 10 11 13 14 11 8 6 5 4 3 2 2 3 4 5 6 6 7 8 9 9 10 11 11 12 10 10 9 10 10 10 10 10 10 10 9
7 8 8 12 14 15 15 14 15 14 17 11 10 7 6 5 4 4 4 4 3 3 4 5 7 8 8 8 9 10 11 11 10 10 10 10 10 10 9 9 9 10 10 10
6 5 5 11 12 14 13 12 12 16 16 6 8 9 8 7 5 6 5 4 5 5 6 7 8 8 10 10 9 10 10 10 10 10 11 10 10 10 10 9 8 9 9 9
4 2 9 9 4 9 13 15 13 12 9 7 9 9 8 5 5 6 6 5 5 5 5 5 5 5 6 8 9 10 10 10 10 10 10 10 10 10 9 8 8 8 8 9
3 5 9 8 4 4 7 10 7 10 10 8 7 6 7 4 4 6 7 6 6 6 5 4 5 5 7 8 8 9 10 10 11 11 11 11 11 10 9 8 8 7 7 8
5 5 8 5 3 3 4 7 2 5 7 7 4 6 8 5 5 6 6 5 4 3 2 3 4 5 7 8 9 11 11 10 10 11 12 12 11 9 7 8 8 7 6 7
8 7 9 6 5 1 4 5 4 4 5 5 5 8 7 6 5 5 5 5 3 2 3 4 5 6 7 8 10 9 8 8 9 10 10 10 9 8 8 8 8 7 7 5
6 8 9 4 1 2 4 3 4 4 5 6 7 7 6 6 5 5 5 4 2 2 3 3 5 7 7 8 7 6 7 8 9 9 8 9 10 9 9 9 9 8 7 5
7 8 5 3 4 5 3 4 4 5 6 5 6 7 7 6 5 5 5 4 3 3 3 3 4 7 8 6 6 7 8 9 8 9 8 9 11 11 9 9 8 7 7 6
6 8 8 7 6 6 5 5 6 5 5 5 6 8 7 7 6 6 5 4 3 2 3 3 4 5 6 5 7 8 9 9 9 10 9 8 8 8 8 9 8 8 7 7
8 8 7 7 6 7 6 6 5 5 5 6 7 8 8 7 6 6 6 4 3 4 5 5 4 4 5 6 8 8 9 8 8 8 9 8 7 6 7 6 9 10 8 8
10 8 6 8 6 6 6 7 7 6 7 6 6 8 8 7 6 6 6 5 4 5 5 5 4 5 5 7 9 10 9 8 7 7 7 7 7 5 4 5 8 9 9 9
11 10 10 11 10 9 9 9 8 8 8 8 7 7 8 7 7 6 6 6 5 5 5 5 4 5 6 7 8 10 10 9 7 7 8 8 8 8 7 6 7 9 11 12
10 9 11 11 10 9 9 9 9 9 8 8 7 7 7 7 7 7 7 7 5 5 5 5 5 6 6 7 8 8 9 9 9 8 8 8 8 8 8 8 7 5 7 12
10 9 11 10 10 9 8 7 8 9 8 8 7 7 7 7 8 8 7 5 5 5 5 5 6 6 5 7 8 9 8 7 7 7 7 7 7 7 7 8 7 7 6 7
9 9 10 10 11 10 9 8 9 10 9 8 7 7 7 7 8 8 7 5 5 6 6 5 6 5 6 7 7 7 7 11 10 8 7 7 7 8 8 8 8 8 7 7
9 10 9 9 10 10 10 10 10 10 9 9 8 7 6 6 7 7 7 6 6 6 5 6 6 5 6 7 8 7 7 9 12 9 8 8 8 8 8 8 8 7 6 8
9 11 10 10 10 10 11 10 9 9 9 8 7 6 6 7 7 8 7 5 4 4 5 5 5 6 7 8 7 7 7 8 8 8 8 7 7 7 7 8 8 9 7 7
7 8 9 9 10 10 10 9 9 8 8 7 7 7 7 7 7 7 5 5 5 6 5 4 7 7 6 8 9 7 8 9 8 7 7 11 9 7 7 8 8 8 8 7
7 7 8 8 8 8 9 8 7 7 7 6 6 7 7 7 6 5 5 5 5 4 4 5 6 6 6 8 10 7 8 9 9 9 8 8 8 8 7 8 8 8 7 7
7 8 8 8 8 8 7 7 6 7 7 6 6 7 7 6 5 4 4 5 4 3 4 6 5 5 6 8 10 7 8 8 9 9 9 8 8 8 8 8 8 7 7 6
7 8 8 8 8 8 7 6 6 6 6 5 5 5 5 4 4 3 4 4 3 4 3 3 4 7 10 11 7 8 8 8 8 8 8 8 8 8 8 8 8 7 6 6
7 7 8 8 8 8 8 6 5 5 5 5 4 4 4 3 3 3 3 2 2 4 3 4 7 12 14 8 7 7 8 8 8 8 7 7 7 8 8 8 7 7 7 6
7 7 7 7 7 7 7 7 5 4 4 4 4 3 2 1 1 1 1 3 4 4 3 6 11 13 12 6 7 7 7 7 7 7 7 7 7 7 7 7 7 6 6 7
7 7 7 6 6 5 6 6 5 4 3 2 2 2 1 1 1 1 2 3 5 5 4 7 11 11 7 6 6 6 6 6 7 7 7 7 7 7 7 7 7 6 6 6
6 5 5 5 4 4 4 4 3 3 2 1 1 1 1 1 2 2 3 3 5 6 5 4 6 7 6 6 6 6 6 7 7 6 7 7 7 7 7 7 7 6 6 6
5 5 4 4 3 3 3 3 3 2 2 0 1 1 2 2 3 3 4 4 4 4 4 5 5 5 6 6 6 6 6 5 6 6 6 6 6 6 7 7 6 6 5 6
Wind_Direction
247 258 257 259 251 236 228 225 234 250 258 267 281 285 286 288 288 283 268 255 222 214 202 187 183 184 183 181 175 171 172 179 185 182 178 174 174 175 175 176 178 177 176 179
262 255 255 264 257 241 235 233 237 250 260 258 273 285 290 286 267 255 249 244 236 220 208 197 193 189 184 181 177 171 176 182 176 170 170 172 173 169 168 172 173 171 176 177
262 265 281 259 238 230 229 228 226 239 248 263 269 271 266 264 258 248 246 240 234 222 212 208 204 194 189 184 172 172 177 175 171 170 171 172 167 165 170 170 167 170 174 175
254 247 237 246 241 230 236 242 237 245 258 255 259 268 266 247 248 258 260 255 244 233 228 218 206 197 184 171 169 172 173 173 171 169 170 166 165 169 168 164 167 169 170 172
218 235 265 276 262 233 235 250 243 254 267 281 285 286 267 272 272 262 255 249 243 230 223 208 196 188 170 170 170 172 176 176 174 170 167 166 170 170 164 160 163 164 164 165
213 226 243 258 290 289 243 252 275 269 274 285 283 256 262 288 283 278 279 264 254 244 223 201 194 174 169 175 177 184 184 180 173 169 168 171 171 164 155 154 156 152 154 162
221 235 260 274 296 325 211 258 313 292 285 284 257 250 272 279 276 276 283 273 267 234 217 213 190 171 179 182 192 191 175 167 166 167 167 163 156 152 147 145 143 145 146 149
209 223 247 261 208 204 247 284 302 301 296 288 287 295 294 290 289 295 300 285 256 231 239 225 185 178 187 197 193 165 158 162 164 160 156 152 149 149 148 147 146 147 143 142
208 227 248 230 229 242 236 268 284 288 295 300 306 305 305 299 296 295 287 279 259 229 236 237 196 187 194 199 169 156 158 163 158 151 152 154 155 153 151 152 154 157 156 158
242 253 255 258 258 258 250 253 268 271 279 290 293 296 300 305 306 301 296 283 273 254 238 242 219 203 200 183 163 159 163 161 156 155 154 155 156 157 159 163 162 162 164 164
250 263 275 265 253 256 257 256 258 261 267 274 286 293 291 294 299 300 296 281 266 252 243 237 223 210 190 171 161 162 162 160 158 158 156 156 156 161 165 175 174 170 173 168
241 242 244 265 273 275 267 266 263 267 272 270 269 279 286 289 289 290 292 284 273 260 255 243 215 208 191 175 168 163 162 163 161 158 156 154 147 125 106 137 152 159 161 161
244 254 255 264 271 268 264 265 261 259 262 268 269 269 275 280 283 285 283 274 262 256 251 239 214 207 193 178 174 171 169 166 162 161 160 158 155 151 140 114 122 144 153 158
248 257 263 261 263 268 267 269 268 264 261 258 262 265 268 274 277 280 277 272 266 257 246 231 213 213 194 178 174 171 166 166 164 164 161 159 159 156 152 150 148 140 149 154
251 243 251 263 269 270 268 269 270 268 268 265 257 254 259 267 273 277 274 268 261 252 240 224 216 214 187 176 173 168 164 163 158 152 152 151 149 147 146 147 146 143 137 147
257 254 255 259 265 270 268 264 264 267 267 266 263 255 253 258 266 273 272 256 241 243 235 219 218 209 182 173 169 166 164 159 154 150 148 148 150 151 152 152 151 154 158 156
261 262 260 264 265 268 266 261 259 262 263 260 259 259 261 265 270 271 268 258 246 244 235 219 214 196 180 174 167 162 154 153 150 148 153 156 156 157 157 157 157 158 161 166
256 260 262 264 267 269 271 267 262 260 259 258 259 256 254 254 259 265 265 262 258 256 245 224 202 185 178 170 163 157 154 154 155 155 153 155 154 154 155 156 155 153 153 160
282 278 278 275 272 270 270 268 267 264 262 256 254 252 250 251 254 257 254 247 242 247 246 212 189 181 174 168 158 152 152 151 149 150 150 153 151 152 155 155 154 155 155 157
300 299 297 295 292 280 274 273 272 270 263 253 251 254 255 255 250 244 240 244 241 235 214 191 178 172 168 162 153 150 152 153 153 152 151 152 153 156 157 154 153 154 157 159
303 302 302 304 304 296 285 282 279 275 272 258 247 249 254 256 240 227 231 250 251 211 194 182 172 166 161 156 149 149 153 154 155 155 154 154 154 155 154 152 154 156 157 157
305 303 305 305 304 300 296 292 286 284 282 273 262 252 246 245 235 234 237 231 214 190 178 165 162 162 159 152 147 149 152 153 152 151 153 155 156 155 154 154 154 155 156 158
301 300 302 303 301 299 302 301 295 289 283 277 272 263 248 240 224 217 243 227 182 172 160 157 158 156 153 145 145 149 151 150 150 151 151 151 151 151 152 152 152 154 157 157
300 300 300 301 301 301 302 306 306 299 290 284 278 267 244 228 253 247 199 171 165 150 149 152 149 148 143 136 138 141 143 143 142 141 141 141 142 144 146 148 149 152 153 153
298 297 298 302 303 299 300 306 307 303 301 299 303 305 277 194 186 163 131 139 140 128 122 139 139 136 130 126 131 133 135 137 138 138 140 142 143 143 144 146 150 152 153 156
298 297 293 288 287 293 298 300 297 297 298 313 352 13 32 63 101 108 107 110 115 115 113 118 124 120 114 117 120 121 124 132 134 134 136 137 138 140 143 146 148 151 152 153
301 300 301 303 303 301 301 301 298 299 297 313 33 34 54 69 81 92 100 104 108 108 107 107 110 113 114 115 116 117 119 123 126 129 132 134 138 141 144 146 147 147 148 152